Weather History for Winnemucca, NV

Change the Weather History Date:

Friday, October 12, 2012

  Actual Average Record
Temperature  
Mean Temperature 59 °F 50 °F  
Max Temperature 72 °F 69 °F 85 °F (1964)
Min Temperature 46 °F 30 °F 16 °F (1969)
Degree Days  
Heating Degree Days 6 15  
Month to date heating degree days 129 158  
Since 1 July heating degree days 207 362  
Cooling Degree Days 0 0  
Month to date cooling degree days 0 0  
Year to date cooling degree days 681 541  
Growing Degree Days 12 (Base 50)    
Moisture  
Dew Point 43 °F    
Average Humidity 59    
Maximum Humidity 83    
Minimum Humidity 35    
Precipitation  
Precipitation T in 0.02 in 0.35 in (1925)
Month to date precipitation T 0.24  
Year to date precipitation 3.41 6.04  
Snow  
Snow 0.00 in 0.00 in 3.40 in (1879)
Month to date snowfall 0.0 0.1  
Since 1 July snowfall 0.0 0.1  
Since 1 September snowfall 0.0 0.1  
Snow Depth 0.00 in    
Sea Level Pressure  
Sea Level Pressure 29.87 in    
Wind  
Wind Speed 8 mph (South)    
Max Wind Speed 16 mph    
Max Gust Speed 21 mph    
Visibility 10 miles    
Events      
T = Trace of Precipitation, MM = Missing Value Source: NWS Daily Summary

Daily Weather History Graph

Daily Weather History Graph

Search for Another Location

Airport:

Trip Planner

Search our weather history database for the weather conditions in past years. The results will help you decide how hot, cold, wet, or windy it might be!

Date:

Astronomy

Oct. 12, 2012 Rise Set
Actual Time 6:59 AM PDT 6:14 PM PDT
Civil Twilight 6:32 AM PDT 6:42 PM PDT
Nautical Twilight 6:00 AM PDT 7:13 PM PDT
Astronomical Twilight 5:28 AM PDT 7:45 PM PDT
Moon 3:46 AM PDT (10/12) 4:27 PM PDT (10/12)
Length of Visible Light 12h 09m
Length of Day
11h 14m
Waning Crescent, 10% of the Moon is Illuminated
Oct 12
Waning Crescent
Oct 15
New
Oct 21
First Quarter
Oct 29
Full
Nov 6
Last Quarter

Hourly Weather History & Observations

Time (PDT) Temp. Dew Point Humidity Pressure Visibility Wind Dir Wind Speed Gust Speed Precip Events Conditions
12:56 AM 54.0 °F 43.0 °F 66% 29.79 in 10.0 mi SE 6.9 mph - N/A   Mostly Cloudy
1:56 AM 54.0 °F 43.0 °F 66% 29.79 in 10.0 mi South 10.4 mph - N/A   Mostly Cloudy
2:56 AM 55.0 °F 44.1 °F 67% 29.81 in 10.0 mi South 13.8 mph - N/A   Overcast
3:56 AM 55.0 °F 45.0 °F 69% 29.82 in 10.0 mi South 11.5 mph - N/A   Overcast
4:56 AM 54.0 °F 45.0 °F 72% 29.83 in 10.0 mi South 9.2 mph - 0.00 in   Overcast
5:56 AM 53.1 °F 45.0 °F 74% 29.85 in 10.0 mi South 10.4 mph - N/A   Overcast
6:56 AM 52.0 °F 46.0 °F 80% 29.86 in 10.0 mi South 9.2 mph - 0.00 in   Mostly Cloudy
7:56 AM 55.0 °F 46.0 °F 72% 29.87 in 10.0 mi Calm Calm - N/A   Partly Cloudy
8:56 AM 57.9 °F 46.0 °F 65% 29.87 in 10.0 mi SSE 13.8 mph - N/A   Partly Cloudy
9:56 AM 61.0 °F 45.0 °F 56% 29.88 in 10.0 mi South 8.1 mph - N/A   Clear
10:56 AM 63.0 °F 44.1 °F 50% 29.87 in 10.0 mi SE 6.9 mph - N/A   Clear
11:56 AM 68.0 °F 43.0 °F 40% 29.86 in 10.0 mi Variable 6.9 mph - N/A   Partly Cloudy
12:56 PM 66.2 °F 42.8 °F 43% 29.95 in 10.0 mi WSW 8.1 mph 16.1 mph N/A   Scattered Clouds
1:56 PM 70.0 °F 43.0 °F 38% 29.84 in 10.0 mi Variable 6.9 mph - N/A   Scattered Clouds
2:56 PM 68.0 °F 42.1 °F 39% 29.83 in 10.0 mi Calm Calm - N/A   Partly Cloudy
3:56 PM 71.1 °F 42.1 °F 35% 29.83 in 10.0 mi SSW 8.1 mph - N/A   Scattered Clouds
4:56 PM 71.1 °F 42.1 °F 35% 29.83 in 10.0 mi SW 10.4 mph 16.1 mph N/A   Clear
5:56 PM 66.0 °F 41.0 °F 40% 29.85 in 10.0 mi SW 3.5 mph - N/A   Clear
6:56 PM 61.0 °F 43.0 °F 52% 29.89 in 10.0 mi SE 6.9 mph - N/A   Clear
7:56 PM 61.0 °F 43.0 °F 52% 29.91 in 10.0 mi SSE 13.8 mph - N/A   Clear
9:56 PM 55.9 °F 42.1 °F 60% 29.96 in 10.0 mi South 11.5 mph - N/A   Clear
10:56 PM 52.0 °F 41.0 °F 66% 30.00 in 10.0 mi WNW 4.6 mph - N/A   Clear
11:56 PM 46.9 °F 37.9 °F 71% 30.01 in 10.0 mi ESE 4.6 mph - N/A   Clear